Latest Weather Observations for Falls Creek

IDV60801

Issued at 9:02 am EDT Friday 19 December 2014 (issued every 30 minutes, with the page automatically refreshed every 10 minutes)

About weather observations | Map of weather stations | Latest weather observations for VIC | Other Formats
Station Details ID: 083084 Name: FALLS CREEK Lat: -36.87 Lon: 147.28 Height: 1765.0 m
Data from the previous 72 hours. | See also: Recent months at Falls Creek
Date/Time
EDT
Temp
°C
App
Temp
°C
Dew
Point
Rel
Hum
%
Delta-T
°C
Wind Press
QNH
hPa
Press
MSL
hPa
Rain
since 9 am
mm
Dir
 
Spd
km/h
Gust
km/h
Spd
kts
Gust
kts
19/09:00am 4.0 -2.6 -0.6 72 1.9 S 24 33 13 18 1014.8 1008.3 0.0
19/08:30am 3.1 -3.1 -0.4 78 1.5 S 22 30 12 16 1014.4 1008.0 0.0
19/08:00am 2.1 -5.3 -0.5 83 1.1 S 28 35 15 19 1013.9 1007.5 0.0
19/07:30am 1.3 -6.0 -0.3 89 0.7 S 28 33 15 18 1013.3 1006.9 0.0
19/07:00am 0.4 -6.7 -0.9 91 0.5 SSW 26 32 14 17 1013.0 1006.5 0.0
19/06:30am 0.0 -6.4 -1.9 87 0.7 SSW 22 28 12 15 1012.7 1006.3 0.0
19/06:00am -0.3 -7.0 -1.3 93 0.4 SSW 24 28 13 15 1012.4 1005.9 0.0
19/05:30am -0.2 -6.9 -0.9 95 0.3 SSW 24 28 13 15 1012.3 1005.8 0.0
19/05:00am 0.1 -6.1 -0.5 96 0.2 SSW 22 26 12 14 1012.0 1005.5 0.0
19/04:30am 0.5 -6.1 -0.1 96 0.2 SSW 24 30 13 16 1011.9 1005.4 0.0
19/04:00am 1.0 -4.7 0.7 98 0.1 SSW 20 24 11 13 1011.8 1005.3 0.0
19/03:30am 1.2 -2.8 0.8 97 0.2 S 11 17 6 9 1012.0 1005.5 0.0
19/03:00am 1.6 -3.5 0.6 93 0.4 SSW 17 20 9 11 1012.1 1005.6 0.0
19/02:30am 2.0 -3.5 0.8 92 0.5 SSW 19 20 10 11 1012.3 1005.8 0.0
19/02:00am 2.0 -3.4 1.0 93 0.4 SSW 19 20 10 11 1012.5 1006.0 0.0
19/01:30am 2.4 -3.0 1.2 92 0.5 SSW 19 26 10 14 1012.6 1006.1 0.0
19/01:00am 2.6 -0.9 1.4 92 0.5 S 9 13 5 7 1012.6 1006.1 0.0
19/12:30am 3.2 -1.4 1.3 87 0.8 WSW 15 19 8 10 1012.7 1006.3 0.0
19/12:00am 3.6 0.1 1.5 86 0.9 W 9 13 5 7 1012.7 1006.3 0.0
 
Date/Time
EDT
Temp
°C
App
Temp
°C
Dew
Point
Rel
Hum
%
Delta-T
°C
Wind Press
QNH
hPa
Press
MSL
hPa
Rain
since 9 am
mm
Dir
 
Spd
km/h
Gust
km/h
Spd
kts
Gust
kts
18/11:30pm 3.9 0.5 1.9 87 0.9 NW 9 11 5 6 1012.9 1006.4 0.0
18/11:00pm 4.4 -0.4 2.4 87 0.9 WNW 17 26 9 14 1013.0 1006.5 0.0
18/10:30pm 4.6 0.2 2.6 87 0.9 NNW 15 22 8 12 1012.7 1006.3 0.0
18/10:00pm 4.7 0.7 2.9 88 0.8 NNW 13 22 7 12 1012.7 1006.3 0.0
18/09:30pm 5.0 -1.1 3.0 87 0.9 W 24 41 13 22 1013.0 1006.5 0.0
18/09:00pm 6.9 0.9 1.2 67 2.6 W 22 39 12 21 1012.5 1006.0 0.0
18/08:30pm 7.8 2.5 -0.7 55 3.7 NW 17 30 9 16 1012.1 1005.6 0.0
18/08:12pm 8.4 1.0 -0.9 52 4.0 NNW 28 50 15 27 1011.8 1005.3 0.0
18/08:00pm 8.5 1.5 -0.8 52 4.1 NNW 26 43 14 23 1011.7 1005.1 0.0
18/07:34pm 8.9 1.2 -0.1 53 4.0 NW 30 50 16 27 1011.4 1004.9 0.0
18/07:30pm 9.1 1.4 0.0 53 4.1 NW 30 44 16 24 1011.5 1005.0 0.0
18/07:00pm 9.4 2.2 0.6 54 4.0 NW 28 41 15 22 1011.2 1004.7 0.0
18/06:30pm 9.9 1.6 -0.3 49 4.6 NNW 33 54 18 29 1010.5 1003.9 0.0
18/06:00pm 10.7 3.0 -0.4 46 5.0 NW 30 54 16 29 1010.2 1003.7 0.0
18/05:30pm 10.8 2.1 -0.3 46 5.0 NW 35 61 19 33 1010.4 1003.8 0.0
18/05:00pm 11.8 3.6 0.6 46 5.2 NNW 33 54 18 29 1010.0 1003.4 0.0
18/04:34pm 12.1 3.6 1.1 47 5.2 NNW 35 54 19 29 1010.5 1003.9 0.0
18/04:30pm 11.3 2.3 0.1 46 5.1 NNW 37 54 20 29 1010.6 1004.0 0.0
18/04:01pm 12.3 4.2 1.0 46 5.3 NW 33 54 18 29 1010.5 1003.9 0.0
18/04:00pm 12.3 4.1 0.1 43 5.6 NW 33 54 18 29 1010.4 1003.8 0.0
18/03:57pm 12.5 4.6 1.2 46 5.3 NW 32 54 17 29 1010.2 1003.7 0.0
18/03:55pm 12.4 4.5 1.1 46 5.3 NW 32 50 17 27 1010.4 1003.8 0.0
18/03:30pm 11.6 2.6 0.4 46 5.1 NNW 37 59 20 32 1010.4 1003.8 0.0
18/03:00pm 11.2 2.6 0.0 46 5.1 NW 35 63 19 34 1010.1 1003.5 0.0
18/02:30pm 12.8 4.8 1.5 46 5.4 NW 33 54 18 29 1010.4 1003.8 0.0
18/02:00pm 11.5 1.8 0.6 47 5.0 NW 41 72 22 39 1010.1 1003.5 0.0
18/01:30pm 12.0 2.9 1.6 49 4.9 NW 39 63 21 34 1010.1 1003.5 0.0
18/01:00pm 11.9 3.1 1.3 48 5.0 NNW 37 59 20 32 1010.0 1003.4 0.0
18/12:30pm 11.4 2.1 0.8 48 4.9 NNW 39 61 21 33 1010.1 1003.5 0.0
18/12:00pm 11.0 2.9 1.3 51 4.5 NNW 33 56 18 30 1010.5 1003.9 0.0
18/11:40am 11.1 4.0 1.4 51 4.5 NNW 28 48 15 26 1010.5 1003.9 0.0
18/11:30am 11.0 4.1 2.3 55 4.1 NNW 28 44 15 24 1010.6 1004.0 0.0
18/11:00am 10.4 3.2 1.0 52 4.3 NW 28 44 15 24 1010.7 1004.2 0.0
18/10:30am 10.0 3.6 0.9 53 4.2 NNW 24 39 13 21 1011.0 1004.4 0.0
18/10:00am 9.7 3.7 0.9 54 4.0 NNW 22 39 12 21 1011.1 1004.5 0.0
18/09:30am 8.9 3.1 -0.1 53 4.0 NNW 20 35 11 19 1011.0 1004.4 0.0
18/09:00am 8.4 2.5 -0.6 53 3.9 NNW 20 33 11 18 1010.8 1004.3 0.0
18/08:30am 7.7 1.4 -0.8 55 3.7 NNW 22 35 12 19 1011.0 1004.4 0.0
18/08:00am 7.0 0.3 -1.4 55 3.6 NNW 24 39 13 21 1010.7 1004.2 0.0
18/07:30am 6.4 -0.3 -1.2 58 3.2 NW 24 37 13 20 1010.6 1004.0 0.0
18/07:00am 5.6 -2.0 -1.8 59 3.1 NW 28 39 15 21 1010.2 1003.7 0.0
18/06:30am 5.2 -2.7 -1.9 60 2.9 NW 30 35 16 19 1010.0 1003.4 0.0
18/06:00am 5.2 -3.3 -1.9 60 2.9 NW 33 39 18 21 1009.8 1003.2 0.0
18/05:30am 5.2 -3.4 -2.4 58 3.1 NW 33 41 18 22 1009.5 1002.9 0.0
18/05:00am 5.4 -2.9 -2.0 59 3.0 NW 32 39 17 21 1009.2 1002.6 0.0
18/04:30am 5.5 -2.1 -2.1 58 3.1 NW 28 37 15 20 1009.3 1002.7 0.0
18/04:00am 5.6 -2.0 -2.2 57 3.2 NW 28 35 15 19 1009.2 1002.6 0.0
18/03:30am 5.6 -1.5 -1.5 60 3.0 NW 26 32 14 17 1009.3 1002.7 0.0
18/03:00am 5.6 -1.5 -1.5 60 3.0 NW 26 33 14 18 1009.3 1002.7 0.0
18/02:30am 5.6 -0.4 -1.5 60 3.0 NNW 20 26 11 14 1009.5 1002.9 0.0
18/02:00am 5.7 -0.3 -1.4 60 3.0 NNW 20 26 11 14 1009.8 1003.2 0.0
18/01:30am 5.8 -0.2 -1.3 60 3.0 NNW 20 26 11 14 1010.0 1003.4 0.0
18/01:00am 5.9 -0.1 -1.5 59 3.1 NNW 20 26 11 14 1010.1 1003.5 0.0
18/12:30am 6.1 0.1 -1.5 58 3.2 NNW 20 26 11 14 1010.2 1003.7 0.0
18/12:00am 6.4 0.4 -1.2 58 3.2 NNW 20 28 11 15 1010.6 1004.0 0.0
 
Date/Time
EDT
Temp
°C
App
Temp
°C
Dew
Point
Rel
Hum
%
Delta-T
°C
Wind Press
QNH
hPa
Press
MSL
hPa
Rain
since 9 am
mm
Dir
 
Spd
km/h
Gust
km/h
Spd
kts
Gust
kts
17/11:30pm 6.8 0.8 -1.3 56 3.4 NNW 20 28 11 15 1010.8 1004.3 0.0
17/11:00pm 7.0 1.2 -1.2 56 3.5 NNW 19 24 10 13 1011.1 1004.5 0.0
17/10:30pm 7.2 1.8 -1.0 56 3.5 NNW 17 22 9 12 1011.2 1004.7 0.0
17/10:00pm 7.4 2.5 -0.8 56 3.5 NNW 15 20 8 11 1011.4 1004.9 0.0
17/09:30pm 7.7 2.8 -0.5 56 3.6 NNW 15 20 8 11 1011.5 1005.0 0.0
17/09:00pm 7.7 3.2 -0.3 57 3.5 NNW 13 17 7 9 1011.4 1004.9 0.0
17/08:30pm 8.2 3.3 -0.8 53 3.9 NNW 15 19 8 10 1011.4 1004.9 0.0
17/08:00pm 8.9 4.8 -0.1 53 4.0 NNW 11 15 6 8 1011.3 1004.8 0.0
17/07:30pm 9.6 4.7 -0.6 49 4.5 NNW 15 20 8 11 1011.1 1004.5 0.0
17/07:00pm 10.0 4.8 -0.2 49 4.6 NNW 17 22 9 12 1010.8 1004.3 0.0
17/06:30pm 11.0 5.8 0.1 47 4.9 NNW 17 20 9 11 1010.4 1003.8 0.0
17/06:00pm 11.1 6.3 0.5 48 4.9 NNW 15 22 8 12 1010.5 1003.9 0.0
17/05:30pm 12.7 8.4 1.1 45 5.5 NNW 13 22 7 12 1010.2 1003.7 0.0
17/05:00pm 12.5 8.3 1.5 47 5.2 N 13 20 7 11 1010.2 1003.7 0.0
17/04:30pm 12.0 6.6 1.3 48 5.0 N 19 26 10 14 1010.4 1003.8 0.0
17/04:00pm 12.7 7.5 2.3 49 5.0 N 19 28 10 15 1010.6 1004.0 0.0
17/03:30pm 12.6 7.4 2.7 51 4.8 N 19 28 10 15 1010.5 1003.9 0.0
17/03:00pm 12.6 8.1 4.1 56 4.3 N 17 26 9 14 1010.5 1003.9 0.0
17/02:30pm 12.3 7.5 2.7 52 4.7 NNW 17 26 9 14 1010.4 1003.8 0.0
17/02:00pm 12.1 7.7 2.8 53 4.5 NNW 15 26 8 14 1010.4 1003.8 0.0
17/01:30pm 12.1 8.1 3.1 54 4.4 NW 13 19 7 10 1010.4 1003.8 0.0
17/01:00pm 12.2 7.7 4.2 58 4.0 N 17 26 9 14 1010.4 1003.8 0.0
17/12:30pm 11.2 6.9 3.5 59 3.8 NNW 15 22 8 12 1010.1 1003.5 0.0
17/12:00pm 10.4 5.9 2.3 57 3.9 NNW 15 24 8 13 1009.9 1003.3 0.0
17/11:30am 10.7 6.6 2.0 55 4.1 NNE 13 20 7 11 1009.5 1002.9 0.0
17/11:00am 9.9 6.6 0.3 51 4.4 NNE 7 13 4 7 1009.3 1002.7 0.0
17/10:30am 9.5 6.2 0.1 52 4.2 ENE 7 15 4 8 1009.0 1002.4 0.0
17/10:00am 8.4 4.6 -0.6 53 3.9 SE 9 15 5 8 1008.6 1001.9 0.0
17/09:30am 7.6 3.4 -0.8 55 3.6 ESE 11 17 6 9 1008.5 1001.8 0.0
17/09:00am 6.9 2.8 -7.1 36 5.2 S 7 13 4 7 1008.3 1001.7 0.0
17/08:30am 6.5 2.5 -5.2 43 4.5 S 7 15 4 8 1008.1 1001.5 0.0
17/08:00am 5.2 0.6 -4.1 51 3.6 S 11 15 6 8 1007.5 1000.8 0.0
17/07:30am 3.5 -2.9 -4.9 54 3.1 S 20 22 11 12 1006.9 1000.2 0.0
17/07:00am 2.9 -3.8 -7.6 46 3.8 S 20 24 11 13 1006.4 999.7 0.0
17/06:30am 0.9 -4.2 -4.9 65 2.2 SSW 13 15 7 8 1006.2 999.5 0.0
17/06:00am 1.6 -2.9 -6.4 55 2.9 SSW 9 15 5 8 1006.1 999.4 0.0
17/05:30am 1.4 -3.8 -6.6 55 2.9 SSW 13 17 7 9 1005.7 999.0 0.0
17/05:00am 0.9 -5.1 -6.9 56 2.8 SSW 17 20 9 11 1005.4 998.6 0.0
17/04:30am 1.6 -2.7 -5.3 60 2.6 SSW 9 11 5 6 1005.2 998.5 0.0
17/04:00am 1.6 -2.6 -3.9 67 2.2 SSW 9 17 5 9 1005.1 998.4 0.0
17/03:30am 2.5 -2.3 -5.6 55 3.1 SSW 11 15 6 8 1005.0 998.2 0.0
17/03:00am 2.2 -3.2 -1.6 76 1.5 SSW 17 20 9 11 1005.0 998.2 0.0
17/02:30am 2.7 -2.6 -0.4 80 1.3 SSW 17 20 9 11 1004.9 998.1 0.0
17/02:00am 3.5 -1.1 1.4 86 0.9 SW 15 19 8 10 1005.0 998.2 0.0
17/01:30am 4.1 0.1 0.3 76 1.6 WSW 11 15 6 8 1004.9 998.1 0.0
17/01:00am 5.1 0.8 0.9 74 1.9 WNW 13 19 7 10 1005.1 998.4 0.0
17/12:30am 6.4 1.0 1.5 71 2.2 WNW 19 30 10 16 1004.9 998.1 0.0
17/12:00am 7.6 -0.5 1.2 64 2.9 NNW 33 54 18 29 1004.6 997.9 0.0
 
Date/Time
EDT
Temp
°C
App
Temp
°C
Dew
Point
Rel
Hum
%
Delta-T
°C
Wind Press
QNH
hPa
Press
MSL
hPa
Rain
since 9 am
mm
Dir
 
Spd
km/h
Gust
km/h
Spd
kts
Gust
kts
16/11:35pm 8.1 1.2 2.8 69 2.5 NW 28 50 15 27 1005.0 998.2 0.0
16/11:30pm 8.2 0.6 2.9 69 2.5 WNW 32 46 17 25 1005.1 998.4 0.0
16/11:04pm 9.5 2.3 3.0 64 3.1 WNW 30 48 16 26 1005.0 998.2 0.0
16/11:00pm 9.6 2.0 3.8 67 2.8 WNW 33 50 18 27 1005.1 998.4 0.0
16/10:59pm 9.6 2.0 4.0 68 2.7 WNW 33 52 18 28 1005.1 998.4 0.0
16/10:50pm 10.3 2.6 3.6 63 3.3 NW 33 61 18 33 1005.1 998.4 0.0
16/10:30pm 11.5 2.8 2.3 53 4.4 NNW 37 65 20 35 1005.1 998.4 0.0
16/10:00pm 12.5 4.0 1.2 46 5.4 NNW 35 67 19 36 1004.9 998.1 0.0
16/09:30pm 13.0 4.9 0.7 43 5.8 NW 33 65 18 35 1004.8 998.0 0.0
16/09:00pm 13.5 4.0 -0.5 38 6.4 NW 39 61 21 33 1004.8 998.0 0.0
16/08:43pm 14.1 5.3 -1.1 35 6.9 NW 35 72 19 39 1004.6 997.9 0.0
16/08:42pm 14.0 5.1 -1.6 34 7.0 NW 35 72 19 39 1004.9 998.1 0.0
16/08:33pm 14.2 4.6 -1.4 34 7.0 WNW 39 57 21 31 1004.9 998.1 0.0
16/08:30pm 14.3 5.1 -1.7 33 7.2 NW 37 57 20 31 1004.8 998.0 0.0
16/08:00pm 14.8 3.4 -2.1 31 7.6 NW 48 80 26 43 1004.4 997.6 0.0
16/07:55pm 14.9 4.3 -2.1 31 7.6 NNW 44 80 24 43 1004.2 997.4 0.0
16/07:30pm 15.0 6.1 -2.0 31 7.6 NW 35 56 19 30 1004.3 997.5 0.0
16/07:00pm 15.5 7.6 -1.5 31 7.8 NW 30 57 16 31 1004.6 997.9 0.0
16/06:30pm 15.5 5.6 -0.7 33 7.5 NNW 41 59 22 32 1004.1 997.3 0.0
16/06:00pm 16.2 6.2 -1.4 30 8.1 NW 41 70 22 38 1004.1 997.3 0.0
16/05:30pm 16.5 7.0 -0.7 31 8.0 NNW 39 57 21 31 1003.9 997.1 0.0
16/05:00pm 17.5 8.0 -0.7 29 8.6 NW 39 65 21 35 1004.3 997.5 0.0
16/04:41pm 17.6 8.4 -1.6 27 8.9 NW 37 78 20 42 1003.8 997.0 0.0
16/04:30pm 17.9 9.5 -0.8 28 8.8 NW 33 54 18 29 1004.2 997.4 0.0
16/04:00pm 18.4 10.1 -0.4 28 9.0 NNW 33 54 18 29 1004.5 997.8 0.0
16/03:37pm 17.7 8.5 -1.0 28 8.8 NNW 37 57 20 31 1004.5 997.8 0.0
16/03:30pm 17.7 8.5 -1.5 27 8.9 NW 37 54 20 29 1004.8 998.0 0.0
16/03:00pm 17.5 8.2 -2.2 26 9.1 NW 37 59 20 32 1004.9 998.1 0.0
16/02:30pm 17.2 7.6 1.2 34 7.8 NW 41 61 22 33 1004.8 998.0 0.0
16/02:00pm 17.3 7.3 1.3 34 7.9 NNW 43 65 23 35 1004.3 997.5 0.0
16/01:30pm 16.7 5.8 1.2 35 7.5 NNW 48 67 26 36 1004.1 997.3 0.0
16/01:00pm 16.9 6.3 3.2 40 7.0 NNW 48 72 26 39 1003.9 997.1 0.0
16/12:30pm 16.4 5.9 3.8 43 6.4 NNW 48 74 26 40 1003.6 996.8 0.0
16/12:00pm 16.0 5.0 5.0 48 5.8 NW 52 82 28 44 1003.2 996.4 0.0
16/11:30am 15.4 4.2 7.7 60 4.2 NNW 56 82 30 44 1003.2 996.4 0.0
16/11:00am 14.8 4.9 9.8 72 2.9 NNW 52 74 28 40 1003.3 996.5 0.0
16/10:30am 13.9 3.8 9.1 73 2.7 NNW 52 76 28 41 1003.2 996.4 0.0
16/10:00am 13.6 3.1 8.9 73 2.6 NNW 54 72 29 39 1003.6 996.8 0.0
16/09:30am 13.0 3.9 8.5 74 2.5 NNW 46 69 25 37 1003.3 996.5 0.0

Other Formats:

Comma delimited format used in spreadsheet applications
http://www.bom.gov.au/fwo/IDV60801/IDV60801.94903.axf

JavaScript Object Notation format (JSON) in row-major order
http://www.bom.gov.au/fwo/IDV60801/IDV60801.94903.json